Voltar ao catálogo

FENGYUN 1C DEB

AtivoPO
NORAD 29835·DEBRIS·🇨🇳 China

Lançado May 10, 1999 de Taiyuan Satellite Launch Center

Loading…

Próximas Passagens (próximas 24 horas)

TLE

AtualizadoSource: Space-Track

Época: Sep 14, 2026, 08:45 UTC

1 29835U 99025ED  26257.36512865  .00000146  00000-0  51409-4 0  9994
2 29835  99.0664  47.8929 0165944 299.8698  86.9965 14.43568717 34693

Acompanhe FENGYUN 1C DEB em tempo real com AllMySat

Download on the App Store